{"data":{"norad_id":63704,"epoch":"2026-05-24T15:37:41.574432Z","epoch_age_seconds":98981,"freshness":"FRESH","line1":"1 63704U 25087H   26144.65117563  .00008029  00000+0  28278-3 0  9991","line2":"2 63704  53.1570 226.4397 0001171  86.8415 273.2719 15.30213433 60831","mean_motion":15.30213433,"eccentricity":0.0001171,"inclination_deg":53.157,"raan_deg":226.4397,"arg_perigee_deg":86.8415,"mean_anomaly_deg":273.2719,"bstar":0.00028278,"rev_number":6083,"period_min":94.104519601352,"perigee_km":474.37243836539,"apogee_km":475.97748402671,"semimajor_km":6853.311961196,"source":"CELESTRAK","updated_at":"2026-05-25T13:38:20.097394Z"}}